EXPRESS-AMU1

Last updated on Thu Oct 30 2025 00:02:50 GMT+0000 (Coordinated Universal Time)

1 41191U 15082A 25302.47827109 .00000165 00000+0 00000+0 0 9992 2 41191 0.0183 255.7859 0002748 331.6160 18.9563 1.00271581 35951
UTC large
Height (km)
Speed (km/s)
/
Latitude / Longitude
Inclination (degrees)
Orbital Period (minutes)
Azimuth
Elevation
Range (km)
Doppler Factor

Next 0 passes for location: London (51.5072 / 0.1276)

Sorry there are no passes over London.